This is the latest recevied weather packets stored in our database for station/object W4OTS. If no packets are shown the sender has not sent any weather packets the latest 10 day(s).
| Time | Temp. | Humidity | Pressure | Rain* | Wind** | Luminosity | Snow |
|---|---|---|---|---|---|---|---|
| 1778175749 | 22.78° C | 81% | 1010.4 hPa | 0 mm | - | 737 W/m² | - |
| 1778175447 | 22.78° C | 80% | 1010.5 hPa | 0 mm | - | 731 W/m² | - |
| 1778175143 | 22.78° C | 82% | 1010.5 hPa | 0 mm | - | 185 W/m² | - |
| 1778174839 | 22.78° C | 85% | 1010.7 hPa | 0 mm | - | 717 W/m² | - |
| 1778174531 | 22.22° C | 83% | 1010.5 hPa | 0 mm | - | 747 W/m² | - |
| 1778174231 | 21.67° C | 87% | 1010.7 hPa | 0 mm | - | 838 W/m² | - |
| 1778173929 | 22.22° C | 84% | 1010.6 hPa | 0 mm | - | 121 W/m² | - |
| 1778173625 | 22.22° C | 85% | 1010.7 hPa | 0 mm | - | 652 W/m² | - |
| 1778173323 | 21.67° C | 89% | 1010.8 hPa | 0 mm | - | 495 W/m² | - |
| 1778173018 | 21.11° C | 92% | 1011 hPa | 0 mm | - | 201 W/m² | - |
| 1778172714 | 21.67° C | 91% | 1011.1 hPa | 0 mm | - | 147 W/m² | - |
| 1778172410 | 21.67° C | 93% | 1011.2 hPa | 0 mm | - | 789 W/m² | - |
| 1778172108 | 21.67° C | 93% | 1011.1 hPa | 0 mm | - | 125 W/m² | - |
| 1778171805 | 21.67° C | 91% | 1011.5 hPa | 0 mm | - | 202 W/m² | - |
| 1778171503 | 21.67° C | 92% | 1011.3 hPa | 0 mm | - | 393 W/m² | - |
| 1778171198 | 21.11° C | 93% | 1011.3 hPa | 0 mm | - | 890 W/m² | - |
| 1778170895 | 20.56° C | 96% | 1011.4 hPa | 0 mm | - | 459 W/m² | - |
| 1778170591 | 20.56° C | 98% | 1011.3 hPa | 0 mm | - | 307 W/m² | - |
| 1778170288 | 20° C | 97% | 1011.3 hPa | 0 mm | - | 320 W/m² | - |
| 1778169984 | 20° C | 99% | 1011.2 hPa | 0 mm | - | 375 W/m² | - |
| 1778169681 | 19.44° C | 99% | 1011.5 hPa | 0 mm | - | 412 W/m² | - |
| 1778169375 | 18.33° C | 99% | 1011.8 hPa | 0 mm | - | 467 W/m² | - |
| 1778169067 | 18.89° C | 99% | 1011.3 hPa | 0 mm | - | 264 W/m² | - |
| 1778168764 | 18.89° C | 99% | 1011.2 hPa | 0 mm | - | 219 W/m² | - |
| 1778168461 | 18.89° C | 99% | 1011.3 hPa | 0 mm | - | 615 W/m² | - |
* Rain latest hour (hover to see other rain measurements)
** Current wind speed in m/s (hover to see current wind gust speed)